User: anonymous   Login
Location: Aboncourt
(47.7710°N, 5.9826°E)
Time: 07:28:40
(UTC+00:00)
Language:

Cosmos 158 Rocket - Orbit

View from above orbital plane
View from above orbital plane
View from above satellite
View from above satellite

Ground track
Ground track

The orbit data is extracted from the following two-line orbital elements,

1  2802U 67045B   20273.45070412 +.00000131 +00000-0 +45489-4 0  9990
2  2802 074.0103 092.0805 0067129 218.5769 141.0582 14.43777575802197
Epoch (UTC): 29 September 2020 10:49:00
Eccentricity: 0.0067129
inclination: 74.0103°
perigee height: 698 km
apogee height: 794 km
right ascension of ascending node: 92.0805°
argument of perigee: 218.5769°
revolutions per day: 14.43777575
mean anomaly at epoch: 141.0582°
orbit number at epoch: 80219

The dashed part of the orbit path shows where the satellite is in the earth's shadow,  

DLR